Powrót do katalogu

STARLINK-37356

AktywnyŁącznośćVLEO
NORAD 68704·PAYLOAD·🇺🇸 United States

Wystrzelony Apr 14, 2026 z Cape Canaveral Space Force Station

Loading…

Następne Przeloty (najbliższe 24 godziny)

TLE

ŚwieżeSource: CelesTrak SupGP

Epoka: Sep 14, 2026, 21:33 UTC

1 68704C 26081F   26257.89840278  .00040997  00000+0  12110-2 0  2572
2 68704  53.1572 232.1327 0001355 104.5167 315.2480 15.34375549    18

Śledź STARLINK-37356 w czasie rzeczywistym z AllMySat

Download on the App Store